COSMOS 1275 DEB

Satellite information

Favourite Embed

Satellite Type and Status

DEBRISIN ORBIT

Key statistics

Satellite COSMOS 1275 DEB at a glance.

Uptime

16048

Days in orbit

Revolutions

≈ 14.4

Per day

Orbit

LEO

Low Earth Orbit

Inclination

82.9

Latest

Satellite identification and parameters

Extended collection of information and parameters for COSMOS 1275 DEB.

Object identification

Identified? True

Debris? True

Object name: COSMOS 1275 DEB

International designator: 1981-053CA

Object number (NORAD): 12733

Object ID (CCSDS): 12733

Country: COMMONWEALTH OF INDEPENDENT STATES (CIS)

Current information (Y/N): Y

RCS size: SMALL

Orbital parameters

Period: 100.322 minutes

Inclination: 82.8581 deg

SMA: 7151.965 km

Apoapsis: 788.513 km

Periapsis: 759.147 km

RAAN: 239.6383 deg

Eccentricy: 0.002053

Argument of periapsis: 66.4546 deg

Mean anomaly: 293.8797 deg

Mean motion: 14.35372873 rev/day

Mean motion (dot): 0.00004827 rev/day2

B* drag term: 0.0016727 1/REarth

Two-line elements (TLE)

Creation date: May 12, 2025, 2:31 a.m.

Reference frame: TEME

Reference center: EARTH

Epoch: May 11, 2025, 5:39 p.m. UTC

TLE line 0: 0 COSMOS 1275 DEB

TLE line 1: 1 12733U 81053CA 25131.73589725 .00004827 00000-0 16727-2 0 9997

TLE line 2: 2 12733 82.8581 239.6383 0020530 66.4546 293.8797 14.35372873238815

Live tracking on map

Real-time ground track for satellite COSMOS 1275 DEB.

In-orbit conjunctions

A list of the most updated potential collisions computed for object COSMOS 1275 DEB.

Target Orbit TCA Probability of collision Miss distance Type
COSMOS 990 LEO 2025-01-31 03:10:39 0.0005018818 88.0 (m) PAYLOAD
COSMOS 1867 COOLANT LEO 2024-10-24 13:58:57 0.0001083612 127.0 (m) DEBRIS
NOAA 8 SSO 2024-06-26 16:15:44 0.0001505409 108.0 (m) PAYLOAD

Associated space launch

Navigation satellite providing location information for the Tsiklon-B navigation system

COSMOS 1275 DEB was lifted into orbit during the mission ‘Kosmos-3M | Parus 27’, on board a Kosmos-3M space rocket.

The launch took place on June 4, 1981, 3:41 p.m. from 132/2.

For more information about the launch, click the button.

Launch to space Kosmos-3M | Parus 27
Kosmos-3M | Parus 27

Agency: N/A

Status: Launch Successful

Launch date: June 4, 1981, 3:41 p.m. UTC

Rocket: Kosmos-3M

Launch pad: 132/2

Location: Plesetsk Cosmodrome, Russian Federation

...

Latest news about this satellite

There are no fresh news available about this satellite. Check back as we update our databases every day.


Newsletter sign-up

Weekly statistics, charts and insights to help you stay on top of the space industry.